Location: Moscow
(55.7500°N, 37.5830°E)
Time: 17:15:10
(UTC+03:00)

ISS - Pass Details

Date: 16 March 2026
Orbit: 416 x 425 km, 51.6° (Epoch: 19 April)

Event Time Altitude Azimuth Distance (km) Brightness Sun altitude
Rises 19:24:24 0° 227° (SW) 2,383 0.7 -7.8°
Reaches altitude 10° 19:26:45 10° 213° (SSW) 1,517 -0.6 -8.1°
Maximum altitude 19:29:34 24° 157° (SSE) 918 -2.3 -8.5°
Enters shadow 19:31:58 12° 105° (ESE) 1,377 -1.8 -8.8°
